{"data":{"norad_id":69299,"intl_designator":"2026-119D","name":"STARLINK-37455","alt_names":[],"object_type":"PAYLOAD","status":"ACTIVE","operator":null,"country":"US","launch_date":"2026-05-30","launch_site_code":"AFWTR","launch_vehicle":null,"mission":null,"orbit_class":"UNKNOWN","rcs_meters":null,"size_class":null,"mass_kg":null,"dimensions":null,"purposes":["comms"],"wikipedia_slug":null,"has_3d_model":false,"image_url":null,"decayed_at":null,"tle_current":{"epoch":"2026-09-19T22:30:26.390880Z","epoch_age_seconds":77540,"freshness":"FRESH","line1":"1 69299U 26119D   26262.93780545  .00013887  00000+0  43190-3 0  9999","line2":"2 69299  97.2832 287.6256 0000987  85.6039 274.5316 15.33429451 18575","mean_motion":15.33429451,"eccentricity":9.87e-5,"inclination_deg":97.2832,"raan_deg":287.6256,"arg_perigee_deg":85.6039,"mean_anomaly_deg":274.5316,"bstar":0.0004319,"rev_number":1857,"period_min":93.907156867303,"perigee_km":464.91396195399,"apogee_km":466.26491355281,"semimajor_km":6843.7264377534,"source":"CELESTRAK","updated_at":"2026-09-20T09:00:44.154266Z"}}}